Home   Weather   Fairfield   Past weeks
Flag for USA

Past Weather in Fairfield, Wisconsin, USA — Yesterday and Last 2 Weeks

Now
88 °F

Scattered clouds.


Feels Like: 88 °F
Forecast: 91 / 67 °F
Wind: 5 mph from North

Location: Janesville / Rock County

Current Time: Jul 5, 2020 at 12:59:19 pm

Latest Report: Jul 5, 2020 at 11:45 am


Visibility: 10 mi

Pressure: 30.02 "Hg

Humidity: 43%

Dew Point: 63 °F

Location of FairfieldLocation

Past Weather in Fairfield — Graph

°F

Fairfield Temperature Yesterday

Maximum temperature yesterday: 90 °F (at 1:45 pm)
Minimum temperature yesterday: 68 °F (at 4:55 am)
Average temperature yesterday: 76 °F

High & Low Weather Summary for the Past Weeks

 TemperatureHumidityPressure
High90 °F (Jun 29, 11:45 am)100% (Jun 20, 9:15 pm)30.09 "Hg (Jun 20, 9:15 pm)
Low55 °F (Jun 24, 3:15 am)31% (Jul 1, 2:45 pm)29.74 "Hg (Jun 23, 1:35 am)
Average72 °F82%29.90 "Hg
* Reported Jun 20 11:45 am — Jul 5 11:45 am, Fairfield. Weather by CustomWeather, © 2020

Note: Actual official high and low records may vary slightly from our data, if they occured in-between our weather recording intervals... More about our weather records

Fairfield Weather History for the Previous 24 Hours

Scroll right to see more
 ConditionsComfort  
Time TempWeatherWind HumidityBarometerVisibility
11:45 am
Sun, Jul 5
88 °FScattered clouds.5 mph43%30.02 "Hg10 mi
10:45 am84 °FHaze.5 mph55%30.03 "Hg6 mi
9:45 am82 °FHaze.No wind58%30.03 "Hg6 mi
8:45 am79 °FHaze.No wind65%30.04 "Hg5 mi
7:45 am73 °FFog.No wind100%30.04 "Hg2 mi
6:45 am66 °FFog.No wind100%30.02 "Hg1 mi
5:45 am66 °FFog.No wind100%30.01 "Hg2 mi
4:55 am66 °FFog.No wind100%30.01 "Hg2 mi
4:35 am64 °FFog.No wind100%30.01 "Hg0 mi
4:15 am66 °FFog.No wind100%30.00 "Hg5 mi
3:55 am68 °FFog.No wind100%30.00 "Hg4 mi
3:35 am68 °FFog.No wind100%30.00 "Hg2 mi
3:15 am66 °FFog.No wind100%30.01 "Hg1 mi
2:55 am68 °FFog.No wind100%30.01 "Hg5 mi
2:35 am66 °FFog.No wind100%30.01 "Hg3 mi
2:15 am68 °FClear.No wind100%30.01 "Hg7 mi
1:55 am68 °FClear.No wind100%30.01 "Hg7 mi
1:35 am70 °FClear.No wind94%30.01 "Hg10 mi
1:15 am70 °FClear.No wind94%30.02 "Hg7 mi
12:55 am70 °FClear.No wind100%30.02 "Hg7 mi
12:35 am72 °FClear.No wind94%30.02 "Hg7 mi
12:15 am70 °FClear.No wind100%30.02 "Hg7 mi
11:55 pm
Sat, Jul 4
70 °FClear.No wind100%30.02 "Hg7 mi
11:35 pm70 °FFog.No wind100%30.02 "Hg4 mi
11:15 pm70 °FClear.No wind100%30.01 "Hg10 mi
10:55 pm73 °FClear.No wind74%30.01 "Hg10 mi
10:35 pm73 °FClear.No wind74%30.01 "Hg10 mi
10:15 pm73 °FClear.No wind74%30.01 "Hg10 mi
9:55 pm75 °FClear.No wind69%30.00 "Hg10 mi
8:45 pm79 °FClear.3 mph65%29.99 "Hg10 mi
7:45 pm84 °FSunny.6 mph51%29.99 "Hg10 mi
6:45 pm88 °FSunny.7 mph35%29.99 "Hg10 mi
5:45 pm90 °FPassing clouds.9 mph41%30.00 "Hg10 mi
4:45 pm88 °FScattered clouds.9 mph43%30.01 "Hg10 mi
3:45 pm90 °FScattered clouds.9 mph41%30.02 "Hg10 mi
2:45 pm90 °FBroken clouds.10 mph41%30.03 "Hg10 mi
1:45 pm90 °FBroken clouds.14 mph38%30.05 "Hg10 mi
12:45 pm88 °FPartly sunny.9 mph46%30.06 "Hg10 mi
Weather by CustomWeather, © 2020

See weather overview